Weather History for Evansville, IN

Change the Weather History Date:

Monday, February 4, 2013

  Actual Average Record
Temperature  
Mean Temperature 32 °F 34 °F  
Max Temperature 43 °F 43 °F 77 °F (1962)
Min Temperature 20 °F 25 °F -8 °F (1966)
Degree Days  
Heating Degree Days 33 31  
Month to date heating degree days 150 125  
Since 1 July heating degree days 2715 2904  
Cooling Degree Days 0 0  
Month to date cooling degree days 0 0  
Year to date cooling degree days 0 0  
Moisture  
Dew Point 29 °F    
Average Humidity 78    
Maximum Humidity 92    
Minimum Humidity 64    
Precipitation  
Precipitation 0.09 in 0.13 in 1.14 in (1921)
Month to date precipitation 0.16 0.49  
Year to date precipitation 6.93 3.59  
Snow  
Snow 0.00 in 0.20 in 0.60 in (1970)
Month to date snowfall 0.8 0.6  
Since 1 July snowfall 11.8 7.5  
Snow Depth 0.00 in    
Sea Level Pressure  
Sea Level Pressure 29.95 in    
Wind  
Wind Speed 7 mph (South)    
Max Wind Speed 16 mph    
Max Gust Speed 21 mph    
Visibility 10 miles    
Events Rain    
T = Trace of Precipitation, MM = Missing Value Source: NWS Daily Summary

Daily Weather History Graph

Daily Weather History Graph

Search for Another Location

Airport:

Trip Planner

Search our weather history database for the weather conditions in past years. The results will help you decide how hot, cold, wet, or windy it might be!

Date:

Astronomy

Feb. 04, 2013 Rise Set
Actual Time 6:51 AM CST 5:16 PM CST
Civil Twilight 6:24 AM CST 5:44 PM CST
Nautical Twilight 5:52 AM CST 6:15 PM CST
Astronomical Twilight 5:21 AM CST 6:46 PM CST
Moon 1:25 AM CST (2/4) 11:41 AM CST (2/4)
Length of Visible Light 11h 20m
Length of Day
10h 25m
Last Quarter, 37% of the Moon is Illuminated
Feb 4
Last Quarter
Feb 10
New
Feb 17
First Quarter
Feb 25
Full
Mar 4
Last Quarter

Hourly Weather History & Observations

Time (CST) Temp. Windchill Dew Point Humidity Pressure Visibility Wind Dir Wind Speed Gust Speed Precip Events Conditions
12:54 AM 19.9 °F - 16.0 °F 85% 30.14 in 9.0 mi Calm Calm - N/A   Clear
1:54 AM 23.0 °F 17.0 °F 17.1 °F 78% 30.11 in 10.0 mi ESE 4.6 mph - N/A   Clear
2:54 AM 24.1 °F 17.0 °F 17.1 °F 75% 30.10 in 10.0 mi SE 5.8 mph - N/A   Partly Cloudy
4:54 AM 26.1 °F 18.4 °F 19.0 °F 75% 30.05 in 10.0 mi SSE 6.9 mph - N/A   Mostly Cloudy
5:54 AM 26.1 °F 20.5 °F 19.0 °F 75% 30.03 in 10.0 mi SE 4.6 mph - N/A   Clear
6:54 AM 28.0 °F 22.8 °F 21.0 °F 75% 30.02 in 8.0 mi South 4.6 mph - N/A   Overcast
7:54 AM 30.9 °F 24.3 °F 23.0 °F 72% 29.99 in 9.0 mi SSE 6.9 mph - N/A   Mostly Cloudy
8:54 AM 33.1 °F 28.7 °F 25.0 °F 72% 29.97 in 10.0 mi SSE 4.6 mph - N/A   Overcast
9:54 AM 36.0 °F 28.0 °F 26.1 °F 67% 29.95 in 10.0 mi South 11.5 mph - N/A   Overcast
10:54 AM 37.0 °F 29.3 °F 26.1 °F 65% 29.94 in 10.0 mi South 11.5 mph - N/A   Overcast
11:54 AM 37.9 °F 32.7 °F 28.0 °F 68% 29.92 in 10.0 mi South 6.9 mph - 0.00 in Rain Light Rain
12:54 PM 42.1 °F 36.1 °F 30.0 °F 62% 29.87 in 10.0 mi SSW 10.4 mph - 0.01 in   Overcast
1:54 PM 43.0 °F 36.4 °F 32.0 °F 65% 29.85 in 10.0 mi SSW 12.7 mph - 0.00 in Rain Light Rain
2:54 PM 43.0 °F 36.4 °F 37.0 °F 80% 29.88 in 5.0 mi WSW 12.7 mph - 0.05 in Rain Light Rain
3:54 PM 43.0 °F 37.2 °F 37.9 °F 82% 29.86 in 10.0 mi SW 10.4 mph - 0.02 in   Overcast
4:54 PM 42.1 °F 34.9 °F 37.0 °F 82% 29.86 in 10.0 mi SW 13.8 mph - 0.01 in   Scattered Clouds
5:54 PM 39.0 °F 33.4 °F 35.1 °F 86% 29.87 in 10.0 mi SSW 8.1 mph - N/A   Clear
6:54 PM 37.0 °F 32.4 °F 34.0 °F 89% 29.90 in 10.0 mi SW 5.8 mph - N/A   Clear
7:54 PM 36.0 °F 32.1 °F 33.1 °F 89% 29.91 in 10.0 mi SW 4.6 mph - N/A   Clear
8:54 PM 37.0 °F 33.3 °F 34.0 °F 89% 29.93 in 10.0 mi SW 4.6 mph - N/A   Partly Cloudy
9:46 PM 37.4 °F - 35.6 °F 93% 29.91 in 10.0 mi Calm Calm - N/A   Overcast
9:54 PM 37.9 °F - 35.1 °F 89% 29.92 in 9.0 mi Calm Calm - N/A   Overcast
10:54 PM 39.0 °F - 36.0 °F 89% 29.93 in 10.0 mi Calm Calm - N/A   Overcast
11:39 PM 37.4 °F 32.1 °F 32.0 °F 81% 29.93 in 10.0 mi NNW 6.9 mph - N/A   Overcast
11:54 PM 37.0 °F 28.9 °F 30.9 °F 79% 29.94 in 10.0 mi North 12.7 mph 18.4 mph N/A   Overcast